RH
52 61 65 61 69 66 50 36 34 40 45 47 47 42 37 35 33 29 24 21 19 17 15 14 12 9 6 4 4 4 5 8 12 14 13 12 12 11 12 12 15 20 30
56 53 57 61 57 38 34 39 47 46 46 45 43 41 38 32 27 24 22 18 15 13 11 9 8 7 5 3 3 2 2 2 2 3 8 11 13 13 13 12 12 14 15
34 39 41 38 33 37 43 44 41 41 44 46 44 40 32 28 25 23 17 14 10 9 8 7 6 6 5 4 4 4 4 3 3 3 3 3 5 11 12 12 13 12 13
30 33 32 30 37 45 41 39 42 38 38 37 35 30 27 26 25 19 15 11 9 8 6 6 6 5 5 4 4 4 4 4 3 3 3 3 3 3 6 11 12 13 11
32 32 32 36 41 40 40 50 45 30 30 30 29 28 28 27 23 18 14 10 8 7 6 5 5 4 4 4 4 4 4 5 6 5 4 8 5 4 3 4 9 11 12
36 36 37 42 42 47 44 55 60 41 32 31 31 30 29 26 22 18 12 10 8 7 6 6 5 5 6 6 6 10 19 32 45 40 56 38 24 13 10 5 4 5 9
43 44 46 56 55 47 44 48 55 56 34 34 33 32 30 25 21 14 9 8 7 7 7 5 5 6 8 8 9 13 20 31 45 55 54 49 34 20 14 8 6 4 3
52 54 57 57 50 52 56 50 52 43 37 38 36 34 30 23 18 12 8 8 8 7 8 8 9 9 9 11 14 15 14 17 20 19 19 16 13 17 17 11 11 9 5
51 54 57 61 64 67 71 72 69 54 44 41 38 34 27 22 16 11 8 8 9 7 5 8 13 14 17 12 8 10 15 23 31 38 31 24 28 41 34 16 14 14 15
58 61 66 70 74 84 94 96 90 85 53 45 41 32 24 18 12 8 8 7 6 6 8 18 25 26 19 25 27 27 28 29 30 32 38 42 54 47 39 10 9 10 11
63 65 68 70 78 88 89 91 89 97 55 50 44 31 20 12 7 5 5 6 6 10 18 32 48 34 40 42 37 20 25 41 42 44 47 40 36 40 25 8 6 8 10
62 66 69 73 84 90 98 98 93 86 68 70 38 25 16 8 5 4 5 7 8 12 31 57 70 64 43 40 43 40 18 11 20 50 61 59 46 27 17 13 9 6 8
69 77 79 91 94 98 97 99 96 97 90 82 31 23 8 5 6 7 11 11 10 17 52 84 86 70 51 49 31 23 14 12 12 13 14 17 17 20 22 16 10 8 9
89 90 99 96 97 98 100 99 100 96 93 74 47 12 6 7 11 15 15 15 17 25 51 68 66 63 50 32 20 12 11 11 10 12 12 11 10 9 8 8 9 10 12
96 98 98 96 98 98 100 100 98 96 82 46 33 9 22 28 14 18 24 34 44 47 35 37 43 38 29 14 11 10 10 12 12 15 17 17 17 16 15 14 14 13 13
99 99 99 99 100 100 100 100 95 86 80 46 38 62 31 18 23 35 50 56 53 47 40 43 39 22 14 12 13 15 17 15 14 15 16 18 19 19 21 18 19 20 21
100 99 100 100 100 100 100 97 88 89 79 74 74 36 16 22 34 63 81 81 58 61 57 34 21 14 14 19 19 15 14 14 16 21 29 40 46 48 46 44 41 39 36
100 100 100 100 100 99 96 92 85 88 86 44 24 21 23 27 37 42 76 59 59 50 32 23 14 18 21 17 15 16 19 22 36 48 58 60 54 46 39 34 29 27 28
100 100 100 100 100 97 90 85 92 84 51 34 23 26 33 38 39 47 53 58 47 31 25 16 18 20 17 21 22 24 26 40 59 68 64 52 42 38 35 35 36 36 35
100 100 100 99 97 92 87 91 80 45 40 28 24 36 68 87 75 52 61 62 36 31 18 22 20 18 22 24 24 23 29 59 62 58 49 53 52 52 53 54 53 53 49
100 100 100 98 94 93 96 88 51 44 38 21 26 41 71 100 95 54 62 50 37 20 22 19 19 22 21 22 23 26 55 59 53 63 56 63 59 55 50 49 50 56 52
100 99 100 95 95 96 95 62 49 47 20 23 37 54 48 59 56 59 55 38 19 21 18 16 22 22 21 22 23 32 64 54 56 72 53 53 59 51 50 50 62 63 68
100 98 96 94 95 94 77 45 53 19 15 21 32 42 79 77 55 54 40 20 19 20 15 20 22 25 23 22 22 32 64 62 70 72 61 51 59 62 68 61 62 67 100
96 96 95 96 94 72 36 38 20 15 17 20 24 30 42 46 51 48 24 18 23 17 18 22 23 23 23 21 22 29 62 63 70 77 87 60 82 74 67 63 58 64 100
96 97 96 95 89 44 29 21 17 17 18 21 24 28 34 47 51 43 20 20 21 17 18 20 21 21 19 20 22 24 64 63 70 71 94 78 80 72 76 61 62 61 74
96 96 96 71 45 24 21 19 19 21 24 27 30 32 34 51 56 42 20 21 20 15 16 17 18 17 14 12 17 25 61 62 74 68 85 68 88 99 56 71 76 75 66
Wind_Speed
13 14 16 18 16 14 15 16 18 19 22 25 27 28 29 30 28 25 25 25 25 25 27 28 26 23 21 22 24 25 26 27 29 31 33 36 37 36 34 31 32 34 34
13 14 11 10 11 13 14 17 20 23 25 26 27 31 33 31 28 27 27 26 26 25 25 26 27 28 27 26 27 29 30 30 31 33 35 40 39 39 39 39 36 35 36
11 11 10 10 12 14 17 21 25 27 28 30 32 33 34 32 31 30 29 27 26 28 28 29 31 32 34 37 37 37 39 41 40 39 39 41 43 46 44 43 42 40 39
13 13 13 13 15 18 21 22 25 29 31 32 32 32 32 32 32 31 29 28 29 29 31 32 34 36 38 41 43 45 47 49 50 51 50 48 48 49 52 49 46 44 44
13 14 15 15 18 22 20 22 25 29 31 31 31 31 33 34 34 33 31 32 32 34 36 38 39 41 43 46 47 48 50 53 55 58 60 62 59 56 55 57 54 52 47
12 15 16 18 21 26 26 28 32 32 32 30 31 33 35 36 35 35 35 36 37 37 38 40 42 45 47 49 51 53 54 55 56 61 61 63 63 65 62 60 59 61 57
14 16 16 19 25 27 28 30 31 33 33 33 34 35 36 37 36 37 37 38 38 39 40 42 44 46 48 50 51 53 54 56 57 59 61 62 60 58 61 59 59 59 63
15 16 19 24 27 28 30 28 29 32 33 33 33 36 36 36 37 39 40 41 40 39 39 38 40 43 45 47 49 51 53 53 53 53 52 50 47 45 42 42 41 41 45
16 19 21 24 28 30 31 34 37 33 35 34 34 36 37 38 39 42 43 45 45 43 43 41 40 42 42 42 42 43 45 47 47 47 46 44 41 39 38 34 34 35 35
20 22 25 30 35 35 36 36 41 38 38 37 38 38 38 40 41 44 44 44 43 42 40 40 37 35 31 31 35 39 41 44 47 47 45 42 41 41 38 33 31 35 37
27 30 33 37 40 40 41 38 42 42 37 39 41 42 41 41 42 43 44 42 42 39 37 35 30 29 29 32 33 34 37 40 42 45 46 43 40 39 38 35 33 32 34
34 37 41 43 44 47 43 47 48 40 39 42 42 43 43 42 41 41 42 41 40 37 32 28 29 32 31 35 38 38 37 37 38 42 44 44 41 39 40 39 38 37 37
38 42 44 46 49 46 50 48 52 46 41 41 41 42 41 40 39 38 38 39 39 36 32 30 33 35 35 39 41 41 39 38 38 41 43 44 43 41 41 41 41 41 40
43 44 46 50 48 51 55 47 46 46 44 42 41 38 37 36 36 36 35 35 36 35 35 36 36 37 38 41 42 42 41 40 39 41 42 43 44 43 42 41 41 41 40
46 49 52 58 54 51 54 57 47 44 40 40 39 35 34 34 34 33 33 32 32 37 40 39 39 41 42 43 43 41 40 40 39 40 41 42 43 43 42 40 39 39 39
49 53 53 51 52 51 55 53 48 40 40 38 33 35 33 32 32 30 29 32 34 37 39 39 42 43 43 42 41 41 41 42 41 40 40 40 40 40 39 38 36 35 35
46 47 48 52 52 53 54 51 42 38 37 39 35 31 31 31 30 31 32 35 36 37 39 39 41 41 39 39 41 41 41 41 39 37 37 35 35 35 35 36 35 33 32
41 45 48 50 53 54 46 40 38 38 33 28 30 29 29 30 32 32 34 36 36 38 40 41 39 39 38 40 42 41 37 36 35 33 33 32 33 33 34 35 35 34 31
43 46 47 51 56 48 40 37 31 26 27 29 33 32 31 32 34 35 34 35 37 38 39 39 39 39 40 37 36 35 34 32 31 32 33 34 35 36 36 35 35 34 32
45 48 51 54 46 37 37 28 24 27 28 31 32 33 32 33 36 36 34 36 37 38 37 36 38 38 36 33 33 34 29 29 28 30 32 33 32 32 30 30 30 29 29
49 51 54 49 34 37 30 25 26 30 32 32 32 33 32 35 39 36 35 36 38 36 34 37 36 34 32 31 31 31 30 26 26 27 26 24 25 25 26 27 26 25 25
54 53 52 33 37 34 24 26 29 34 35 32 33 33 33 34 37 34 34 36 34 33 35 36 33 32 31 32 31 30 29 28 23 21 23 18 26 24 25 22 23 22 20
55 50 34 40 44 24 23 28 33 34 33 32 33 33 33 36 33 32 34 32 30 33 35 34 33 33 32 32 30 30 28 26 21 20 25 20 22 19 20 20 18 16 15
48 48 41 45 28 22 27 32 32 31 31 32 32 32 33 33 31 32 31 28 28 30 30 30 32 31 30 30 30 29 28 25 18 15 23 25 22 22 19 17 16 16 15
48 42 43 28 24 26 30 31 31 30 30 30 31 31 33 31 29 31 29 26 27 27 27 28 28 28 28 29 30 29 27 24 17 11 16 22 19 20 15 16 14 16 21
42 43 31 26 28 29 30 30 29 29 30 30 30 31 31 29 30 30 28 25 26 25 24 24 25 27 29 28 28 27 27 24 20 14 14 21 17 22 20 14 14 15 20
Wind_Direction
273 288 301 306 310 321 325 323 325 324 323 320 319 316 315 314 316 314 312 312 313 314 314 317 318 317 319 319 317 311 306 303 298 293 286 281 279 276 271 262 259 256 254
302 304 307 319 325 324 319 322 321 323 318 315 314 315 312 312 314 314 313 314 315 313 308 309 309 309 309 311 311 309 308 302 295 291 287 287 282 277 273 270 263 257 254
312 309 323 327 323 319 326 326 321 316 312 310 310 309 308 309 309 310 309 309 307 304 304 304 301 302 303 303 303 302 302 299 293 288 283 279 278 278 273 269 266 261 255
310 317 317 317 318 321 318 315 319 315 310 307 306 302 300 301 301 300 299 298 298 296 296 296 295 294 295 297 299 299 298 297 295 293 287 280 272 268 269 267 262 260 260
302 303 306 307 307 308 307 311 319 316 308 304 300 298 297 296 295 293 293 295 296 297 299 299 298 297 295 293 291 290 290 290 291 290 290 290 284 275 266 262 260 258 255
300 299 297 301 298 303 295 298 307 310 306 302 298 296 295 293 294 295 295 297 299 298 298 297 295 293 292 291 291 290 289 288 288 289 289 288 289 289 287 278 267 259 254
290 290 285 291 307 312 307 306 301 300 303 300 297 296 294 294 294 294 294 295 296 294 293 293 293 291 289 289 288 287 285 285 285 285 285 288 290 289 287 288 284 274 261
284 294 293 292 302 309 316 309 310 304 300 298 297 296 296 295 294 293 292 293 294 291 292 293 291 291 291 289 289 289 288 287 286 286 288 291 290 287 281 277 275 274 272
287 288 295 298 302 309 312 317 318 310 303 301 301 299 297 296 295 294 295 295 297 298 299 299 297 294 293 292 288 284 285 287 290 293 294 294 290 283 275 268 266 270 269
279 285 290 294 297 297 299 305 308 311 305 304 300 295 292 292 293 296 298 299 300 300 300 300 302 304 301 298 297 295 292 290 290 290 289 289 285 284 279 272 267 268 269
281 285 288 292 293 297 299 306 315 306 301 298 298 295 295 296 297 296 296 297 298 301 301 303 304 304 294 299 304 301 295 289 287 288 290 291 284 279 274 273 272 272 273
281 285 286 288 292 296 304 308 314 306 298 299 297 296 297 296 296 296 295 297 299 302 301 301 300 301 301 302 305 302 299 294 291 287 285 285 283 276 273 275 275 274 275
281 286 287 286 288 300 305 309 312 302 299 300 299 299 298 297 297 296 298 302 304 306 300 296 300 302 300 304 303 301 297 291 288 287 286 286 286 283 278 276 275 275 274
280 282 282 284 294 303 307 303 304 298 303 302 301 299 298 297 300 303 305 305 302 301 300 300 301 302 303 303 302 303 300 295 290 287 287 286 285 283 281 279 278 276 275
286 287 291 295 303 303 310 308 299 306 308 304 301 299 302 305 304 304 304 305 303 305 301 304 307 308 307 307 304 303 300 297 292 290 288 287 286 286 284 281 279 277 274
295 295 297 303 304 306 308 304 306 311 304 299 299 306 304 307 309 307 307 308 306 302 304 309 308 307 307 306 305 304 301 297 295 293 291 289 287 286 285 283 279 276 273
293 297 299 302 305 304 301 305 314 306 296 295 302 303 310 311 309 308 310 311 308 306 305 305 306 308 307 306 305 303 300 297 296 293 291 290 288 286 284 283 281 277 273
298 298 300 304 303 299 300 314 309 301 302 308 311 313 316 318 315 310 305 306 307 306 306 308 308 309 310 309 306 303 302 302 299 296 294 291 287 285 283 281 280 277 271
298 301 307 304 306 301 312 311 302 303 307 313 318 322 325 323 319 313 308 309 308 306 307 309 310 311 312 309 303 302 303 301 299 297 295 292 290 287 284 282 279 277 272
299 302 300 302 297 311 314 303 302 303 312 318 318 317 315 312 321 315 309 309 308 309 310 309 312 312 310 307 306 308 306 301 297 294 294 294 293 293 290 282 279 274 269
292 297 301 297 307 313 303 303 306 308 317 315 313 311 313 299 311 311 309 311 309 309 311 311 314 312 310 310 311 314 313 308 308 305 301 307 298 295 290 285 280 275 272
286 288 294 295 314 306 301 303 303 307 307 310 310 307 310 306 307 308 310 309 309 311 312 314 315 314 314 314 315 318 318 316 317 306 302 310 302 304 299 290 278 275 271
284 284 284 305 308 298 295 293 298 301 304 306 305 305 305 306 306 309 310 310 311 312 313 316 316 315 316 316 317 322 321 320 318 314 312 324 321 325 306 293 278 262 261
284 281 299 304 300 295 289 297 297 298 301 305 306 305 306 306 307 310 310 310 311 311 313 313 313 314 315 316 318 323 324 322 320 311 307 320 325 326 313 296 285 254 252
283 295 302 293 290 285 296 295 296 300 303 302 302 306 305 306 305 310 310 309 310 310 312 312 314 316 318 318 319 322 323 320 316 306 297 311 330 323 324 298 288 269 253
296 299 293 284 288 298 297 296 297 298 299 299 301 303 307 305 306 310 308 305 308 308 310 312 314 319 321 318 315 318 321 322 316 312 300 306 336 339 332 314 296 274 264